#timestamp,LO_Frequency,Hit,StdDev 
1511431215.2,286046996.6,N
1511431235.0,286046996.8,N
1511431235.9,286046996.8,N
1511431255.8,286046997.0,N
1511431275.6,286046997.7,N
1511431295.5,286046997.3,N
1511431315.3,286046997.3,N
1511431335.1,286046996.7,Y
1511431355.9,286046999.8,P
1511431375.7,286047000.6,N
1511431395.5,286047001.2,N
1511431415.4,286046998.8,N
1511431435.2,286046998.9,N
1511431455.1,286046999.5,N
1511431456.0,286046999.5,N
1511431475.8,286047000.6,N
1511431495.6,286046999.0,N
1511431515.5,286046998.4,N
1511431535.3,286046997.2,N
1511431555.1,286046996.7,N
1511431575.9,286046999.1,N
1511431595.7,286046998.6,N
1511431615.6,286046998.3,N
1511431635.4,286047000.9,N
1511431655.2,286047000.7,N
1511431675.1,286047000.1,N
1511431676.0,286047000.1,N
1511431695.8,286046999.7,N
1511431715.6,286047001.9,N
1511431735.5,286046999.8,N
1511431755.3,286047002.6,N
1511431775.2,286046999.3,N
1511431795.9,286046996.6,N
1511431815.7,286046996.9,N
1511431835.6,286046995.1,Y
1511431855.4,286046997.6,P
1511431875.3,286046996.8,P
1511431895.1,286046997.0,N
1511431896.0,286046997.0,Y
1511431915.8,286047002.2,P
1511431935.7,286047001.6,N
1511431955.5,286047003.3,N
1511431975.3,286047002.6,N
1511431995.2,286046999.8,N
1511432015.0,286047000.7,N
1511432015.9,286047000.7,N
1511432035.8,286046998.4,N
1511432055.6,286046998.8,N
1511432075.4,286047002.6,N
1511432095.3,286046999.9,N
1511432115.1,286047002.3,N
1511432135.9,286046998.3,N
1511432155.7,286046998.7,N
1511432175.5,286046999.5,N
1511432195.4,286047000.8,N
1511432215.2,286047000.4,N
1511432235.0,286047000.3,N
1511432235.9,286047000.3,N
1511432255.8,286047000.4,N
1511432275.6,286047000.6,N
1511432295.5,286047002.4,N
1511432315.3,286046999.7,N
1511432335.1,286047000.0,N
1511432355.9,286047000.2,N
1511432375.7,286047002.8,N
1511432395.5,286047000.3,N
1511432415.4,286047002.5,N
1511432435.2,286047002.7,N
1511432455.0,286046999.7,N
1511432456.0,286046999.7,N
1511432475.8,286047000.6,N
1511432495.6,286046999.2,N
1511432515.5,286046998.8,N
1511432535.3,286046998.3,N
1511432555.1,286047000.7,N
1511432575.9,286047000.1,N
1511432595.7,286047002.4,N
1511432615.6,286047001.2,N
1511432635.4,286046999.4,N
1511432655.2,286047000.8,N
1511432675.1,286047000.6,N
1511432676.0,286047000.6,N
1511432695.8,286047001.1,N
1511432715.6,286046998.2,N
1511432735.5,286046998.3,N
1511432755.3,286046998.6,N
1511432775.2,286047000.2,N
1511432795.9,286046999.5,N
1511432815.7,286046998.3,N
1511432835.6,286047000.8,N
1511432855.4,286047001.1,N
1511432875.2,286046998.3,N
1511432895.1,286046998.2,N
1511432896.0,286046998.2,N
1511432915.8,286047001.1,N
1511432935.7,286047000.7,N
1511432955.5,286047000.7,N
1511432975.3,286047001.1,N
1511432995.2,286046999.6,N
1511433015.0,286046998.8,N
1511433015.9,286046998.8,N
1511433035.7,286046999.2,N
1511433055.6,286046998.2,N
1511433075.4,286046997.0,N
1511433095.3,286046997.2,N
1511433115.1,286046999.0,N
1511433116.0,286046999.0,N
1511433135.8,286047001.2,N
1511433155.7,286046999.0,N
1511433175.5,286046998.1,N
1511433195.3,286046999.2,N
1511433215.2,286046999.5,N
1511433235.0,286046998.8,N
1511433235.9,286046998.8,N
1511433255.8,286046996.8,N
1511433275.6,286046997.2,N
1511433295.4,286046996.6,N
1511433315.3,286046997.7,N
1511433335.1,286046997.7,N
1511433355.9,286046996.7,N
1511433375.7,286046997.2,N
1511433395.5,286046998.0,N
1511433415.4,286046996.6,N
1511433435.2,286046998.4,N
1511433455.0,286046997.0,N
1511433455.9,286046997.0,N
1511433475.8,286046997.7,N
1511433495.6,286046995.0,Y
1511433515.5,286046998.8,P
1511433535.3,286046999.6,N
1511433555.2,286046998.5,N
1511433575.9,286047001.2,N
1511433595.7,286046998.4,N
1511433615.6,286047000.8,N
1511433635.4,286046999.8,N
1511433655.2,286047001.8,N
1511433675.1,286047000.4,N
1511433676.0,286047000.4,N
1511433695.8,286047000.3,N
1511433715.7,286047000.6,N
1511433735.5,286046999.8,N
1511433755.3,286046998.8,N
1511433775.2,286046998.9,N
1511433795.0,286046998.7,N
1511433795.9,286046998.7,N
1511433815.7,286046999.4,N
1511433835.6,286046999.4,N
1511433855.4,286047000.5,N
1511433875.3,286047000.7,N
1511433895.1,286047000.4,N
1511433896.0,286047000.4,N
1511433915.8,286047000.0,N
1511433935.7,286046999.7,N
1511433955.5,286047000.0,N
1511433975.3,286046998.3,N
1511433995.2,286046999.0,N
1511434015.0,286046998.4,N
1511434015.9,286046998.4,N
1511434035.8,286046998.1,N
1511434055.6,286047000.4,N
1511434075.4,286046999.8,N
1511434095.3,286047002.4,N
1511434115.1,286047001.7,N
1511434135.9,286047002.0,N
1511434155.7,286047002.2,N
1511434175.5,286047004.4,Y
1511434195.4,286047001.4,P
1511434215.2,286047003.5,P
1511434235.1,286047001.9,N
1511434236.0,286047001.9,N
1511434255.8,286047002.7,N
1511434275.6,286046999.9,N
1511434295.5,286047000.3,N
1511434315.3,286047000.9,N
1511434335.1,286047000.9,N
1511434355.9,286046998.8,N
1511434375.7,286047000.7,N
1511434395.6,286046998.4,N
1511434415.4,286046998.3,N
1511434435.2,286046999.0,N
1511434455.1,286047001.0,N
1511434456.0,286047001.0,N
1511434475.8,286047000.0,N
1511434495.6,286047002.8,N
1511434515.5,286046998.3,N
1511434535.3,286046998.2,N
1511434555.2,286046997.2,N
1511434575.0,286046996.9,N
1511434575.9,286046996.9,N
1511434595.7,286046997.3,N
1511434615.6,286046998.2,N
1511434635.4,286047001.0,N
1511434655.3,286047000.5,N
1511434675.1,286047002.7,N
1511434695.8,286047000.8,N
1511434715.7,286047001.0,N
1511434735.5,286047000.7,N
1511434755.4,286047001.2,N
1511434775.2,286047000.7,N
1511434795.0,286047001.2,N
1511434795.9,286047001.2,N
